• en Belgique
  • Liste des pays
  • À 7 jours
  • Température de l'eau
  • Carte satellitaire
  • Carte météo
  • Widgets météo
  • user-avatar
    Se connecter

    Météo par heure à Canberra

    Ce jour, 24 Février, Samedi

    Heure Température Précipitation Vent Pression Humidité
    00:00 +21°C° 0 mm 1 m/s 706 mmHg 64%
    01:00 +21°C° 0 mm 1 m/s 706 mmHg 67%
    02:00 +20°C° 0 mm 1 m/s 706 mmHg 68%
    03:00 +20°C° 0 mm 1 m/s 706 mmHg 70%
    04:00 +20°C° 0 mm 1 m/s 705 mmHg 71%
    05:00 +20°C° 0 mm 2 m/s 705 mmHg 68%
    06:00 +21°C° 0 mm 2 m/s 706 mmHg 64%
    07:00 +22°C° 0 mm 3 m/s 706 mmHg 60%
    08:00 +26°C° 0 mm 4 m/s 706 mmHg 56%
    09:00 +28°C° 0 mm 5 m/s 706 mmHg 51%
    10:00 +30°C° 0 mm 6 m/s 706 mmHg 44%
    11:00 +32°C° 0 mm 6 m/s 705 mmHg 43%
    12:00 +33°C° 0 mm 6 m/s 704 mmHg 41%
    13:00 +34°C° 0 mm 6 m/s 704 mmHg 40%
    14:00 +33°C° 0 mm 5 m/s 703 mmHg 40%
    15:00 +33°C° 0 mm 5 m/s 703 mmHg 41%
    16:00 +33°C° 0 mm 4 m/s 702 mmHg 41%
    17:00 +30°C° 0 mm 3 m/s 702 mmHg 45%
    18:00 +29°C° 0 mm 3 m/s 702 mmHg 50%
    19:00 +28°C° 0 mm 2 m/s 702 mmHg 54%
    20:00 +27°C° 0,2 mm 2 m/s 702 mmHg 59%
    21:00 +26°C° 0,2 mm 2 m/s 702 mmHg 65%
    22:00 +24°C° 0 mm 1 m/s 702 mmHg 74%
    23:00 +23°C° 0,9 mm 1 m/s 702 mmHg 79%

    Demain, 25 Février, Dimanche

    Heure Température Précipitation Vent Pression Humidité
    00:00 +23°C° 0,9 mm 1 m/s 702 mmHg 83%
    01:00 +22°C° 0,9 mm 1 m/s 702 mmHg 87%
    02:00 +22°C° 2,3 mm 1 m/s 702 mmHg 89%
    03:00 +21°C° 2,3 mm 1 m/s 702 mmHg 92%
    04:00 +21°C° 2,3 mm 1 m/s 702 mmHg 94%
    05:00 +21°C° 3,7 mm 1 m/s 702 mmHg 94%
    06:00 +20°C° 3,7 mm 2 m/s 703 mmHg 95%
    07:00 +20°C° 3,7 mm 2 m/s 703 mmHg 95%
    08:00 +19°C° 1,5 mm 3 m/s 703 mmHg 94%
    09:00 +18°C° 1,5 mm 3 m/s 703 mmHg 94%
    10:00 +17°C° 1,5 mm 3 m/s 704 mmHg 93%
    11:00 +17°C° 1,1 mm 4 m/s 704 mmHg 91%
    12:00 +17°C° 1,1 mm 4 m/s 704 mmHg 89%
    13:00 +17°C° 1,1 mm 4 m/s 704 mmHg 86%
    14:00 +17°C° 0,1 mm 4 m/s 704 mmHg 84%
    15:00 +17°C° 0,1 mm 4 m/s 704 mmHg 82%
    16:00 +17°C° 0,1 mm 4 m/s 704 mmHg 80%
    17:00 +16°C° 0,2 mm 5 m/s 704 mmHg 82%
    18:00 +16°C° 0,2 mm 5 m/s 705 mmHg 85%
    19:00 +16°C° 0,2 mm 6 m/s 705 mmHg 87%
    20:00 +15°C° 0,3 mm 6 m/s 706 mmHg 87%
    21:00 +15°C° 0,3 mm 6 m/s 706 mmHg 88%
    22:00 +15°C° 0,3 mm 6 m/s 707 mmHg 88%
    23:00 +14°C° 0,9 mm 5 m/s 707 mmHg 89%

    Après-demain, 26 Février, Lundi

    Heure Température Précipitation Vent Pression Humidité
    00:00 +14°C° 0,9 mm 5 m/s 707 mmHg 90%
    01:00 +13°C° 0,9 mm 5 m/s 707 mmHg 91%
    02:00 +13°C° 0,5 mm 4 m/s 707 mmHg 91%
    03:00 +13°C° 0,5 mm 4 m/s 707 mmHg 90%
    04:00 +13°C° 0,5 mm 4 m/s 707 mmHg 90%
    05:00 +13°C° 0,2 mm 4 m/s 708 mmHg 89%
    06:00 +13°C° 0,2 mm 4 m/s 708 mmHg 89%
    07:00 +13°C° 0,2 mm 4 m/s 709 mmHg 88%
    08:00 +14°C° 0,1 mm 4 m/s 709 mmHg 83%
    09:00 +15°C° 0,1 mm 4 m/s 709 mmHg 77%
    10:00 +16°C° 0,1 mm 5 m/s 710 mmHg 71%
    11:00 +17°C° 0,1 mm 5 m/s 710 mmHg 67%
    12:00 +19°C° 0,1 mm 5 m/s 710 mmHg 63%
    13:00 +20°C° 0,1 mm 5 m/s 709 mmHg 59%
    14:00 +20°C° 0 mm 4 m/s 709 mmHg 59%
    15:00 +20°C° 0 mm 4 m/s 709 mmHg 60%
    16:00 +20°C° 0 mm 4 m/s 709 mmHg 60%
    17:00 +18°C° 0 mm 4 m/s 709 mmHg 66%
    18:00 +17°C° 0 mm 3 m/s 709 mmHg 72%
    19:00 +14°C° 0 mm 3 m/s 710 mmHg 78%
    20:00 +14°C° 0 mm 3 m/s 710 mmHg 82%
    21:00 +13°C° 0 mm 3 m/s 710 mmHg 87%
    22:00 +13°C° 0 mm 2 m/s 711 mmHg 91%
    23:00 +13°C° 0 mm 2 m/s 711 mmHg 92%

    27 Février, Mardi

    Heure Température Précipitation Vent Pression Humidité
    00:00 +12°C° 0 mm 2 m/s 711 mmHg 93%
    01:00 +12°C° 0 mm 2 m/s 711 mmHg 95%
    02:00 +12°C° 0 mm 2 m/s 710 mmHg 95%
    03:00 +12°C° 0 mm 2 m/s 710 mmHg 95%
    04:00 +10°C° 0 mm 2 m/s 710 mmHg 95%
    05:00 +12°C° 0 mm 2 m/s 710 mmHg 92%
    06:00 +12°C° 0 mm 2 m/s 711 mmHg 90%
    07:00 +13°C° 0 mm 2 m/s 711 mmHg 87%
    08:00 +15°C° 0 mm 2 m/s 711 mmHg 78%
    09:00 +17°C° 0 mm 2 m/s 712 mmHg 68%
    10:00 +20°C° 0 mm 2 m/s 712 mmHg 58%
    11:00 +21°C° 0 mm 2 m/s 712 mmHg 51%
    12:00 +24°C° 0 mm 2 m/s 711 mmHg 45%
    13:00 +26°C° 0 mm 2 m/s 711 mmHg 38%
    14:00 +26°C° 0 mm 2 m/s 710 mmHg 38%
    15:00 +27°C° 0 mm 2 m/s 710 mmHg 37%
    16:00 +27°C° 0 mm 2 m/s 710 mmHg 37%
    17:00 +24°C° 0 mm 2 m/s 709 mmHg 46%
    18:00 +21°C° 0 mm 2 m/s 709 mmHg 56%
    19:00 +19°C° 0 mm 2 m/s 709 mmHg 65%
    20:00 +18°C° 0 mm 1 m/s 709 mmHg 72%
    21:00 +16°C° 0 mm 1 m/s 709 mmHg 79%
    22:00 +15°C° 0 mm 1 m/s 709 mmHg 87%
    23:00 +14°C° 0 mm 1 m/s 709 mmHg 88%

    28 Février, Mercredi

    Heure Température Précipitation Vent Pression Humidité
    00:00 +14°C° 0 mm 1 m/s 708 mmHg 90%
    01:00 +13°C° 0 mm 1 m/s 708 mmHg 92%
    02:00 +13°C° 0 mm 1 m/s 708 mmHg 92%
    03:00 +13°C° 0 mm 1 m/s 707 mmHg 92%
    04:00 +13°C° 0 mm 1 m/s 707 mmHg 92%
    05:00 +14°C° 0 mm 1 m/s 707 mmHg 87%
    06:00 +15°C° 0 mm 1 m/s 707 mmHg 81%
    07:00 +16°C° 0 mm 1 m/s 707 mmHg 76%
    08:00 +19°C° 0 mm 2 m/s 707 mmHg 64%
    09:00 +24°C° 0 mm 3 m/s 707 mmHg 51%
    10:00 +27°C° 0 mm 4 m/s 707 mmHg 39%
    11:00 +29°C° 0 mm 5 m/s 706 mmHg 36%
    12:00 +30°C° 0 mm 6 m/s 706 mmHg 34%
    13:00 +33°C° 0 mm 7 m/s 705 mmHg 32%
    14:00 +33°C° 0 mm 7 m/s 705 mmHg 30%
    15:00 +33°C° 0 mm 7 m/s 704 mmHg 28%
    16:00 +34°C° 0 mm 6 m/s 704 mmHg 27%
    17:00 +32°C° 0 mm 5 m/s 704 mmHg 29%
    18:00 +28°C° 0 mm 4 m/s 705 mmHg 31%
    19:00 +26°C° 0 mm 3 m/s 705 mmHg 34%
    20:00 +24°C° 0 mm 3 m/s 705 mmHg 36%
    21:00 +20°C° 0 mm 2 m/s 706 mmHg 38%
    22:00 +18°C° 0 mm 2 m/s 706 mmHg 40%
    23:00 +18°C° 0 mm 1 m/s 706 mmHg 46%

    1 Mars, Jeudi

    Heure Température Précipitation Vent Pression Humidité
    00:00 +16°C° 0 mm 1 m/s 706 mmHg 52%
    01:00 +15°C° 0 mm 1 m/s 706 mmHg 59%
    02:00 +15°C° 0 mm 1 m/s 707 mmHg 63%
    03:00 +14°C° 0 mm 1 m/s 707 mmHg 67%
    04:00 +14°C° 0 mm 1 m/s 707 mmHg 72%
    05:00 +14°C° 0 mm 1 m/s 707 mmHg 71%
    06:00 +14°C° 0 mm 1 m/s 708 mmHg 71%
    07:00 +15°C° 0 mm 1 m/s 709 mmHg 70%
    08:00 +19°C° 0 mm 1 m/s 709 mmHg 61%
    09:00 +21°C° 0 mm 1 m/s 709 mmHg 52%
    10:00 +24°C° 0 mm 1 m/s 710 mmHg 43%
    11:00 +26°C° 0 mm 1 m/s 710 mmHg 37%
    12:00 +28°C° 0 mm 1 m/s 709 mmHg 32%
    13:00 +30°C° 0 mm 1 m/s 709 mmHg 27%
    14:00 +29°C° 0 mm 1 m/s 709 mmHg 27%
    15:00 +29°C° 0 mm 1 m/s 709 mmHg 28%
    16:00 +28°C° 0 mm 2 m/s 708 mmHg 28%
    17:00 +26°C° 0 mm 2 m/s 709 mmHg 39%
    18:00 +23°C° 0 mm 2 m/s 709 mmHg 50%
    19:00 +19°C° 0 mm 3 m/s 709 mmHg 61%
    20:00 +18°C° 0 mm 3 m/s 709 mmHg 68%
    21:00 +16°C° 0 mm 2 m/s 710 mmHg 76%
    22:00 +15°C° 0 mm 2 m/s 710 mmHg 83%
    23:00 +15°C° 0 mm 2 m/s 710 mmHg 85%
    Voir plus